Location: Bakov nad Jizerou
(50.4784°N, 14.9394°E)
Time: 14:12:18
(UTC+00:00)

CENTAUR R/B - Visible Passes

Search period start: 22 October 2021 00:00
Search period end: 01 November 2021 00:00
Orbit: 729 x 1458 km, 63.5° (Epoch: 16 October)

Date Brightness Start Highest point End Pass type
(mag) Time Alt. Az. Time Alt. Az. Time Alt. Az.
22 Oct 4.0 17:48:19 10° NW 17:54:49 33° NNE 17:59:02 21° ENE visible
22 Oct 3.5 19:39:29 10° NW 19:46:12 55° N 19:46:12 55° N visible
22 Oct 4.7 21:30:17 10° NW 21:33:22 26° NW 21:33:22 26° NW visible
23 Oct 4.1 16:59:35 10° WNW 17:05:48 31° N 17:12:12 12° ENE visible
23 Oct 3.5 18:51:07 10° NW 18:58:27 46° NNE 18:59:22 44° NE visible
23 Oct 4.1 20:41:53 10° NW 20:46:32 41° NW 20:46:32 41° NW visible
23 Oct 5.5 22:33:30 10° WNW 22:33:42 11° WNW 22:33:42 11° WNW visible
24 Oct 4.0 16:10:43 10° WNW 16:16:47 31° N 16:23:47 10° NE visible
24 Oct 3.8 18:02:40 10° NW 18:09:36 38° NNE 18:12:35 30° ENE visible
24 Oct 3.5 19:53:31 10° NW 19:59:45 60° NNW 19:59:45 60° NNW visible
24 Oct 5.0 21:44:37 10° NW 21:46:55 20° WNW 21:46:55 20° WNW visible
25 Oct 4.0 17:14:06 10° NW 17:20:40 33° NNE 17:25:48 18° ENE visible
25 Oct 3.2 19:05:11 10° NW 19:12:56 61° NE 19:12:59 61° NE visible
25 Oct 4.4 20:56:01 10° NW 21:00:09 33° WNW 21:00:09 33° WNW visible
26 Oct 4.0 16:25:23 10° NW 16:31:39 31° N 16:38:50 10° ENE visible
26 Oct 3.5 18:16:50 10° NW 18:24:14 48° NNE 18:26:15 41° ENE visible
26 Oct 3.7 20:07:34 10° NW 20:13:25 53° WNW 20:13:25 53° WNW visible
26 Oct 5.3 21:59:23 10° WNW 22:00:37 14° WNW 22:00:37 14° WNW visible
27 Oct 3.7 17:28:24 10° NW 17:35:25 40° NNE 17:39:34 25° ENE visible
27 Oct 3.1 19:19:13 10° NW 19:26:45 80° N 19:26:45 80° N visible
27 Oct 4.8 21:10:24 10° NW 21:13:56 24° WNW 21:13:56 24° WNW visible
28 Oct 3.9 16:39:51 10° NW 16:46:30 34° NNE 16:52:56 14° ENE visible
28 Oct 3.2 18:30:53 10° NW 18:38:41 65° NE 18:40:07 57° E visible
28 Oct 4.1 20:21:45 10° NW 20:27:18 41° W 20:27:18 41° W visible
29 Oct 3.4 17:42:32 10° NW 17:50:02 51° NNE 17:53:32 34° E visible
29 Oct 3.3 19:33:17 10° NW 19:40:44 67° WSW 19:40:44 67° WSW visible
29 Oct 5.2 21:25:20 10° WNW 21:27:55 17° W 21:27:55 17° W visible
30 Oct 3.6 16:54:07 10° NW 17:01:14 41° NNE 17:07:01 19° E visible
30 Oct 3.1 18:44:55 10° NW 18:52:56 89° NE 18:54:14 69° SE visible
30 Oct 4.6 20:36:12 10° NW 20:41:25 29° W 20:41:25 29° W visible
31 Oct 3.8 16:05:37 10° NW 16:12:20 35° NNE 16:20:00 10° E visible
31 Oct 3.1 17:56:35 10° NW 18:04:26 69° NE 18:07:48 41° ESE visible
31 Oct 3.9 19:47:29 10° NW 19:55:00 45° WSW 19:55:00 45° WSW visible
